Fort Wayne, IN

3:41 AM EDT on May 26, 2017 (GMT -0400)
Fort Wayne International

Weather History for KFWA - March, 2014

Change the Weather History Date:

Tuesday, March 4, 2014

  Actual Average Record
Temperature  
Mean Temperature 11 °F 34 °F  
Max Temperature 22 °F 43 °F 78 °F (1983)
Min Temperature -1 °F 25 °F -1 °F (2014)
Degree Days  
Heating Degree Days 54 31  
Month to date heating degree days 198 127  
Since 1 July heating degree days 5451 4725  
Cooling Degree Days 0 0  
Month to date cooling degree days 0 0  
Year to date cooling degree days 0 0  
Moisture  
Dew Point 3 °F    
Average Humidity 66    
Maximum Humidity 80    
Minimum Humidity 52    
Precipitation  
Precipitation 0.00 in 0.08 in 1.16 in (1982)
Month to date precipitation 0.33 0.31  
Year to date precipitation 6.41 4.61  
Snow  
Snow 0.00 in 0.20 in 3.70 in (1993)
Month to date snowfall 4.2 0.8  
Since 1 July snowfall 64.6 29.2  
Snow Depth 4.00 in    
Sea Level Pressure  
Sea Level Pressure 30.31 in    
Wind  
Wind Speed 3 mph (South)    
Max Wind Speed 6 mph    
Max Gust Speed 8 mph    
Visibility 10 miles    
Events      
T = Trace of Precipitation, MM = Missing Value Source: NWS Daily Summary

Daily Weather History Graph

Daily Weather History Graph

Search for Another Location

Airport or City:

Trip Planner

Search our weather history database for the weather conditions in past years. The results will help you decide how hot, cold, wet, or windy it might be!

Date:

Astronomy

Mar. 04, 2014 Rise Set
Actual Time 7:10 AM EST 6:35 PM EST
Civil Twilight 6:42 AM EST 7:02 PM EST
Nautical Twilight 6:10 AM EST 7:34 PM EST
Astronomical Twilight 5:39 AM EST 8:06 PM EST
Moon 8:54 AM EST (3/4) 10:44 PM EST (3/4)
Length of Visible Light 12h 20m
Length of Day
11h 25m
Waxing Crescent, 14% of the Moon is Illuminated
Mar 4
Waxing Crescent
Mar 8
First Quarter
Mar 16
Full
Mar 23
Last Quarter
Mar 30
New

Hourly Weather History & Observations

Time (EST) Temp. Windchill Dew Point Humidity Pressure Visibility Wind Dir Wind Speed Gust Speed Precip Events Conditions
12:54 AM 1.0 °F - -6.0 °F 72% 30.45 in 10.0 mi Calm Calm - N/A   Overcast
1:54 AM 3.9 °F - -4.0 °F 70% 30.43 in 10.0 mi Calm Calm - N/A   Overcast
2:54 AM 5.0 °F -2.1 °F -5.1 °F 63% 30.40 in 10.0 mi SE 3.5 mph - N/A   Overcast
3:54 AM 5.0 °F -2.1 °F -4.0 °F 66% 30.39 in 10.0 mi ESE 3.5 mph - N/A   Overcast
4:54 AM 3.9 °F - -4.0 °F 70% 30.40 in 10.0 mi Calm Calm - N/A   Overcast
5:54 AM 3.0 °F - -2.9 °F 76% 30.41 in 10.0 mi Calm Calm - N/A   Mostly Cloudy
6:54 AM 5.0 °F -4.1 °F -2.0 °F 73% 30.40 in 10.0 mi SE 4.6 mph - N/A   Mostly Cloudy
7:54 AM 6.1 °F -4.3 °F -0.9 °F 73% 30.38 in 10.0 mi SE 5.8 mph - N/A   Overcast
8:54 AM 9.0 °F -2.2 °F 1.0 °F 70% 30.37 in 10.0 mi South 6.9 mph - N/A   Overcast
9:54 AM 10.9 °F 2.9 °F 1.9 °F 67% 30.37 in 10.0 mi SSW 4.6 mph - N/A   Mostly Cloudy
10:54 AM 14.4 °F 6.9 °F 5.0 °F 66% 30.28 in 10.0 mi SSW 4.6 mph - N/A   Mostly Cloudy
11:54 AM 16.0 °F 10.4 °F 7.0 °F 68% 30.27 in 10.0 mi SW 3.5 mph - N/A   Overcast
12:54 PM 18.0 °F 9.8 °F 7.0 °F 62% 30.25 in 10.0 mi SSW 5.8 mph - N/A   Overcast
1:54 PM 18.0 °F 11.1 °F 7.0 °F 62% 30.22 in 10.0 mi WSW 4.6 mph - N/A   Overcast
2:54 PM 19.0 °F - 6.1 °F 57% 30.21 in 10.0 mi Calm Calm - N/A   Overcast
3:54 PM 21.0 °F 14.6 °F 7.0 °F 55% 30.20 in 10.0 mi South 4.6 mph - N/A   Mostly Cloudy
4:54 PM 21.0 °F 14.6 °F 7.0 °F 55% 30.20 in 10.0 mi South 4.6 mph - N/A   Scattered Clouds
5:54 PM 21.0 °F 16.2 °F 6.1 °F 53% 30.19 in 10.0 mi SE 3.5 mph - N/A   Scattered Clouds
6:54 PM 21.0 °F - 10.9 °F 65% 30.20 in 10.0 mi Calm Calm - N/A   Overcast
7:54 PM 18.0 °F - 8.1 °F 65% 30.22 in 10.0 mi Calm Calm - N/A   Overcast
8:54 PM 14.0 °F - 5.0 °F 67% 30.22 in 10.0 mi Calm Calm - N/A   Mostly Cloudy
9:54 PM 15.1 °F - 6.1 °F 68% 30.22 in 10.0 mi Calm Calm - N/A   Scattered Clouds
10:54 PM 9.0 °F - 3.9 °F 80% 30.23 in 10.0 mi Calm Calm - N/A   Partly Cloudy
11:54 PM 7.0 °F -4.5 °F 1.9 °F 80% 30.29 in 9.0 mi North 6.9 mph - N/A   Scattered Clouds